Miami, FL

6:30 PM EST on February 05, 2016 (GMT -0500)
Kendall-Tamiami Executive

Weather History for KTMB - June, 2013

Change the Weather History Date:

Friday, June 21, 2013

  Actual Average Record
Temperature  
Mean Temperature 82 °F -  
Max Temperature 90 °F 89 °F 94 °F (1990)
Min Temperature 75 °F 71 °F 69 °F (1989)
Cooling Degree Days 18    
Growing Degree Days 32 (Base 50)    
Moisture  
Dew Point 71 °F    
Average Humidity 67    
Maximum Humidity 91    
Minimum Humidity 48    
Precipitation  
Precipitation 0.00 in - - ()
Sea Level Pressure  
Sea Level Pressure 30.08 in    
Wind  
Wind Speed 6 mph (ESE)    
Max Wind Speed 13 mph    
Max Gust Speed 17 mph    
Visibility 10 miles    
Events      
Averages and records for this station are not official NWS values.
T = Trace of Precipitation, MM = Missing Value Source: NWS Daily Summary

Daily Weather History Graph

Daily Weather History Graph

Search for Another Location

Airport or City:

Trip Planner

Search our weather history database for the weather conditions in past years. The results will help you decide how hot, cold, wet, or windy it might be!

Date:

Astronomy

Jun. 21, 2013 Rise Set
Actual Time 6:31 AM EDT 8:15 PM EDT
Civil Twilight 6:05 AM EDT 8:41 PM EDT
Nautical Twilight 5:34 AM EDT 9:13 PM EDT
Astronomical Twilight 5:01 AM EDT 9:45 PM EDT
Moon 6:30 PM EDT (6/21) 4:37 AM EDT (6/21)
Length of Visible Light 14h 36m
Length of Day
13h 44m
Waxing Gibbous, 95% of the Moon is Illuminated
Jun 21
Waxing Gibbous
Jun 23
Full
Jun 30
Last Quarter
Jul 8
New
Jul 15
First Quarter

Hourly Weather History & Observations

Time (EDT) Temp. Heat Index Dew Point Humidity Pressure Visibility Wind Dir Wind Speed Gust Speed Precip Events Conditions
12:53 AM 75.9 °F - 73.0 °F 91% 30.09 in 10.0 mi WSW 3.5 mph - N/A   Partly Cloudy
1:53 AM 81.0 °F 86.2 °F 73.9 °F 79% 30.07 in 10.0 mi ESE 6.9 mph - N/A   Clear
2:53 AM 81.0 °F 85.2 °F 72.0 °F 74% 30.06 in 10.0 mi SE 6.9 mph - N/A   Clear
3:53 AM 81.0 °F 85.2 °F 72.0 °F 74% 30.05 in 10.0 mi SE 5.8 mph - N/A   Clear
4:53 AM 80.1 °F 83.8 °F 72.0 °F 76% 30.04 in 10.0 mi Calm Calm - N/A   Clear
5:53 AM 79.0 °F - 71.1 °F 77% 30.04 in 10.0 mi Calm Calm - N/A   Clear
6:53 AM 75.0 °F - 71.1 °F 87% 30.06 in 10.0 mi Calm Calm - N/A   Clear
7:53 AM 82.0 °F 87.4 °F 73.0 °F 74% 30.07 in 10.0 mi Calm Calm - N/A   Partly Cloudy
8:53 AM 84.0 °F 89.6 °F 72.0 °F 67% 30.09 in 10.0 mi SE 10.4 mph - N/A   Partly Cloudy
9:53 AM 86.0 °F 91.5 °F 71.1 °F 61% 30.10 in 10.0 mi ESE 6.9 mph 17.3 mph N/A   Partly Cloudy
10:53 AM 86.0 °F 90.7 °F 70.0 °F 59% 30.11 in 10.0 mi SE 9.2 mph - N/A   Partly Cloudy
11:53 AM 88.0 °F 93.8 °F 71.1 °F 57% 30.12 in 10.0 mi SE 9.2 mph - N/A   Partly Cloudy
12:53 PM 90.0 °F 95.4 °F 70.0 °F 52% 30.12 in 10.0 mi SE 10.4 mph - N/A   Clear
1:53 PM 90.0 °F 95.4 °F 70.0 °F 52% 30.10 in 10.0 mi ESE 11.5 mph - N/A   Clear
2:53 PM 90.0 °F 96.4 °F 71.1 °F 54% 30.09 in 10.0 mi ESE 9.2 mph 16.1 mph N/A   Partly Cloudy
3:53 PM 89.1 °F 95.0 °F 71.1 °F 55% 30.08 in 10.0 mi SE 10.4 mph - N/A   Clear
4:53 PM 89.1 °F 92.1 °F 66.9 °F 48% 30.07 in 10.0 mi ESE 9.2 mph 17.3 mph N/A   Clear
5:53 PM 87.1 °F 90.6 °F 68.0 °F 53% 30.06 in 10.0 mi East 12.7 mph - N/A   Clear
6:53 PM 84.9 °F 89.4 °F 70.0 °F 61% 30.06 in 10.0 mi East 10.4 mph - N/A   Clear
7:53 PM 82.9 °F 87.0 °F 70.0 °F 65% 30.08 in 10.0 mi East 9.2 mph - N/A   Clear
8:53 PM 81.0 °F 84.9 °F 71.1 °F 72% 30.10 in 10.0 mi East 9.2 mph - N/A   Clear
9:53 PM 80.1 °F 83.8 °F 72.0 °F 76% 30.11 in 10.0 mi East 9.2 mph - N/A   Clear
10:53 PM 80.1 °F 83.6 °F 71.1 °F 74% 30.12 in 10.0 mi East 8.1 mph - N/A   Clear
11:53 PM 79.0 °F - 71.1 °F 77% 30.10 in 10.0 mi East 9.2 mph - N/A   Clear